Location: Sternwarte auf dem Internationalen Platz Vogelsang IP
(50.5721°N, 6.4398°E)
Time: 18:36:57
(UTC+01:00)

A-11 Canister half - Pass Details

Date: 19 December 2025
Orbit: 1511 x 1688 km, 47.2° (Epoch: 19 January)

Event Time Altitude Azimuth Distance (km) Brightness Sun altitude
Rises 15:00:53 0° 239° (WSW) 4,646 12.9 9.0°
Reaches altitude 10° 15:03:55 10° 236° (SW) 3,674 12.6 8.7°
Maximum altitude 15:12:56 61° 159° (SSE) 1,723 9.7 7.9°
Drops below altitude 10° 15:22:15 10° 83° (E) 3,786 10.7 7.0°
Sets 15:25:26 0° 80° (E) 4,796 11.1 6.6°
